sat.trackr.live / text

‹ back to catalog

STARLINK-2225

NORAD 48574 · 2021-041X

PAYLOAD ACTIVE UNKNOWN

§ Identity

Operator
Country
US
Launch date
2021-05-15
Launch site
AFETR
Launch vehicle
Mass (kg)
RCS (m²)

Purposes: comms

External: N2YO · Heavens-Above · Gunter

§ Orbital elements

Epoch: 2026-09-19T15:38:37.017312Z

Period
94.01 min
Inclination
53.1597°
Eccentricity
0.0002845
Mean motion
15.31701867 rev/d
Perigee alt
468.8 km
Apogee alt
472.7 km
Semi-major
6,848.9 km
B*
1.8018e-5
RAAN
278.3120°
Arg perigee
30.7194°
Mean anomaly
329.3973°
Rev number
29,535

§ Raw data

STARLINK-22251 48574U 21041X   26262.65181733  .00000193  00000+0  18018-4 0  99922 48574  53.1597 278.3120 0002845  30.7194 329.3973 15.31701867295355

JSON: /api/v1/satellites/48574 · /tle

For live sub-satellite position, see the globe view (requires WebGL).

§ Visibility from observer

Set your observer location to see the next 7 days of passes ≥ 10°. The values pass through the URL so the page stays shareable.

No JS? Fill the form by hand. The geolocation button needs JavaScript.